Flag for Syria Weather past 2 weeks in Damascus, Syria

Now
93 °F

Passing clouds.


Feels Like: 90 °F
Forecast: 63 / 97 °F
Wind: 9 mph from Southwest

Location: Damascus Int. Airport

Current Time: Jul 22, 2014 at 2:48:12 PM

Latest Report: Jul 22, 2014 at 2:00 PM


Visibility: N/A

Pressure: 29.80 "Hg

Humidity: 24%

Dew point: 52 °F

Location of DamascusLocation

Historic Weather in Damascus — Graph

°F

Damascus temperature yesterday

Maximum temperature yesterday: 91 °F (at 1:00 PM)
Minimum temperature yesterday: 68 °F (at 4:00 AM)
Average temperature yesterday: 79 °F

Past Weeks' High & Low Weather Summary

 TemperatureHumidityPressure
High109 °F (Jul 12, 3:00 PM)94% (Jul 17, 6:00 AM)29.92 "Hg (Jul 17, 6:00 AM)
Low64 °F (Jul 8, 5:00 AM)10% (Jul 12, 3:00 PM)29.68 "Hg (Jul 21, 1:00 AM)
Average81 °F46%29.80 "Hg
* Reported Jul 7 2:00 PM — Jul 22 2:00 PM, Damascus, Weather by CustomWeather, © 2014

Note: Actual official high and low records may vary slightly from our data, if they occured in-between our weather recording intervals... More about our weather records

Advertising

Damascus weather history for previous 24 hours

 ConditionsComfort  
Time TempWeatherWind HumidityBarometerVisibility
2:00 PM
Jul 22
93 °FPassing clouds.9 mph24%29.80 "HgN/A
1:00 PM91 °FPassing clouds.16 mph26%29.80 "HgN/A
12:00 PM88 °FSunny.9 mph31%29.83 "Hg10 mi
11:00 AM84 °FSunny.7 mph37%29.83 "Hg10 mi
10:00 AM79 °FSunny.7 mph51%29.86 "Hg10 mi
9:00 AM75 °FSunny.12 mph61%29.83 "Hg10 mi
8:00 AM72 °FSunny.16 mph69%29.83 "Hg10 mi
7:00 AM68 °FSunny.14 mph83%29.83 "Hg10 mi
6:00 AM66 °FClear.12 mph83%29.83 "Hg10 mi
5:00 AM66 °FClear.14 mph83%29.80 "Hg10 mi
4:00 AM66 °FClear.18 mph83%29.80 "Hg10 mi
3:00 AM68 °FClear.16 mph78%29.80 "Hg10 mi
2:00 AM68 °FClear.18 mph78%29.80 "Hg10 mi
1:00 AM70 °FClear.21 mph73%29.80 "Hg10 mi
12:00 AM72 °FClear.18 mph65%29.80 "Hg10 mi
11:00 PM
Jul 21
72 °FClear.22 mph65%29.80 "Hg10 mi
10:00 PM75 °FClear.12 mph54%29.80 "Hg10 mi
9:00 PM79 °FClear.9 mph48%29.77 "Hg10 mi
8:00 PM82 °FPassing clouds.9 mph40%29.74 "HgN/A
7:00 PM86 °FScattered clouds.16 mph33%29.74 "HgN/A
6:00 PM88 °FScattered clouds.18 mph29%29.74 "HgN/A
5:00 PM90 °FScattered clouds.30 mph27%29.74 "HgN/A
4:00 PM90 °FScattered clouds.32 mph29%29.71 "HgN/A
3:00 PM91 °FScattered clouds.25 mph28%29.71 "HgN/A
2:00 PM91 °FPassing clouds.23 mph28%29.74 "HgN/A
Weather by CustomWeather, © 2014

See weather overviewHow to use our weather pages